Year,Month,Day,Hour,Minute,Value (Times are PST for windgust in km/hr)
2016,03,14,00,00,19.30
2016,03,14,00,01,24.20
2016,03,14,00,02,14.50
2016,03,14,00,03,14.50
2016,03,14,00,04,14.50
2016,03,14,00,05,11.30
2016,03,14,00,06,11.30
2016,03,14,00,07,11.30
2016,03,14,00,08,27.40
2016,03,14,00,09,32.20
2016,03,14,00,10,22.50
2016,03,14,00,11,17.70
2016,03,14,00,12,17.70
2016,03,14,00,13,11.30
2016,03,14,00,14,12.90
2016,03,14,00,15,24.20
2016,03,14,00,16,24.20
2016,03,14,00,17,22.50
2016,03,14,00,18,16.10
2016,03,14,00,19,20.90
2016,03,14,00,20,11.30
2016,03,14,00,21,24.20
2016,03,14,00,22,9.60
2016,03,14,00,23,6.40
2016,03,14,00,24,11.30
2016,03,14,00,25,9.60
2016,03,14,00,26,11.30
2016,03,14,00,27,16.10
2016,03,14,00,28,14.50
2016,03,14,00,29,16.10
2016,03,14,00,30,14.50
2016,03,14,00,31,14.50
2016,03,14,00,32,14.50
2016,03,14,00,33,14.50
2016,03,14,00,34,4.80
2016,03,14,00,35,9.60
2016,03,14,00,36,8.10
2016,03,14,00,37,14.50
2016,03,14,00,38,4.80
2016,03,14,00,39,11.30
2016,03,14,00,40,4.80
2016,03,14,00,41,1.60
2016,03,14,00,42,4.80
2016,03,14,00,43,4.80
2016,03,14,00,44,3.20
2016,03,14,00,45,4.80
2016,03,14,00,46,1.60
2016,03,14,00,48,1.60
2016,03,14,00,49,4.80
2016,03,14,00,50,4.80
2016,03,14,00,51,1.60
2016,03,14,00,52,1.60
2016,03,14,00,53,3.20
2016,03,14,00,55,4.80
2016,03,14,00,57,1.60
2016,03,14,01,01,3.20
2016,03,14,01,02,3.20
2016,03,14,01,07,3.20
2016,03,14,01,10,1.60
2016,03,14,01,12,3.20
2016,03,14,01,13,6.40
2016,03,14,01,15,1.60
2016,03,14,01,16,4.80
2016,03,14,01,17,3.20
2016,03,14,01,18,3.20
2016,03,14,01,19,1.60
2016,03,14,01,20,6.40
2016,03,14,01,21,4.80
2016,03,14,01,22,3.20
2016,03,14,01,23,3.20
2016,03,14,01,24,1.60
2016,03,14,01,25,1.60
2016,03,14,01,30,3.20
2016,03,14,01,40,1.60
2016,03,14,01,41,3.20
2016,03,14,01,45,4.80
2016,03,14,01,46,6.40
2016,03,14,01,47,1.60
2016,03,14,01,48,1.60
2016,03,14,01,49,4.80
2016,03,14,01,51,1.60
2016,03,14,01,52,3.20
2016,03,14,01,53,4.80
2016,03,14,01,55,4.80
2016,03,14,01,56,6.40
2016,03,14,01,57,4.80
2016,03,14,01,58,4.80
2016,03,14,01,59,4.80
2016,03,14,02,01,3.20
2016,03,14,02,02,1.60
2016,03,14,02,04,1.60
2016,03,14,02,05,8.10
2016,03,14,02,06,3.20
2016,03,14,02,07,4.80
2016,03,14,02,08,1.60
2016,03,14,02,09,1.60
2016,03,14,02,10,6.40
2016,03,14,02,11,3.20
2016,03,14,02,12,8.10
2016,03,14,02,13,4.80
2016,03,14,02,14,6.40
2016,03,14,02,15,6.40
2016,03,14,02,16,4.80
2016,03,14,02,17,3.20
2016,03,14,02,20,4.80
2016,03,14,02,22,1.60
2016,03,14,02,24,3.20
2016,03,14,02,29,1.60
2016,03,14,02,30,3.20
2016,03,14,02,31,9.60
2016,03,14,02,32,4.80
2016,03,14,02,33,6.40
2016,03,14,02,34,4.80
2016,03,14,02,35,4.80
2016,03,14,02,36,4.80
2016,03,14,02,38,3.20
2016,03,14,02,40,8.10
2016,03,14,02,41,6.40
2016,03,14,02,42,3.20
2016,03,14,02,43,11.30
2016,03,14,02,44,3.20
2016,03,14,02,45,4.80
2016,03,14,02,46,8.10
2016,03,14,02,47,1.60
2016,03,14,02,48,1.60
2016,03,14,02,49,3.20
2016,03,14,02,50,4.80
2016,03,14,02,51,16.10
2016,03,14,02,52,9.60
2016,03,14,02,53,9.60
2016,03,14,02,54,19.30
2016,03,14,02,55,9.60
2016,03,14,02,56,11.30
2016,03,14,02,57,8.10
2016,03,14,02,58,14.50
2016,03,14,02,59,19.30
2016,03,14,03,00,9.60
2016,03,14,03,01,12.90
2016,03,14,03,02,17.70
2016,03,14,03,03,8.10
2016,03,14,03,04,11.30
2016,03,14,03,05,9.60
2016,03,14,03,06,14.50
2016,03,14,03,07,9.60
2016,03,14,03,08,9.60
2016,03,14,03,09,6.40
2016,03,14,03,11,1.60
2016,03,14,03,12,1.60
2016,03,14,03,16,12.90
2016,03,14,03,17,9.60
2016,03,14,03,18,9.60
2016,03,14,03,19,11.30
2016,03,14,03,20,9.60
2016,03,14,03,21,8.10
2016,03,14,03,22,1.60
2016,03,14,03,23,8.10
2016,03,14,03,24,8.10
2016,03,14,03,25,4.80
2016,03,14,03,26,9.60
2016,03,14,03,27,9.60
2016,03,14,03,28,6.40
2016,03,14,03,29,14.50
2016,03,14,03,30,14.50
2016,03,14,03,31,4.80
2016,03,14,03,32,9.60
2016,03,14,03,33,9.60
2016,03,14,03,34,8.10
2016,03,14,03,35,16.10
2016,03,14,03,36,14.50
2016,03,14,03,37,4.80
2016,03,14,03,38,6.40
2016,03,14,03,39,6.40
2016,03,14,03,40,6.40
2016,03,14,03,41,4.80
2016,03,14,03,42,9.60
2016,03,14,03,43,6.40
2016,03,14,03,44,4.80
2016,03,14,03,45,9.60
2016,03,14,03,46,17.70
2016,03,14,03,47,11.30
2016,03,14,03,48,3.20
2016,03,14,03,49,6.40
2016,03,14,03,50,6.40
2016,03,14,03,51,6.40
2016,03,14,03,52,3.20
2016,03,14,03,53,6.40
2016,03,14,03,54,4.80
2016,03,14,03,55,20.90
2016,03,14,03,56,11.30
2016,03,14,03,57,12.90
2016,03,14,03,58,9.60
2016,03,14,03,59,8.10
2016,03,14,04,00,3.20
2016,03,14,04,01,3.20
2016,03,14,04,02,6.40
2016,03,14,04,03,6.40
2016,03,14,04,04,11.30
2016,03,14,04,05,4.80
2016,03,14,04,06,3.20
2016,03,14,04,07,14.50
2016,03,14,04,08,9.60
2016,03,14,04,09,9.60
2016,03,14,04,10,8.10
2016,03,14,04,11,4.80
2016,03,14,04,12,16.10
2016,03,14,04,13,4.80
2016,03,14,04,14,14.50
2016,03,14,04,15,11.30
2016,03,14,04,16,1.60
2016,03,14,04,17,8.10
2016,03,14,04,18,3.20
2016,03,14,04,19,12.90
2016,03,14,04,20,24.20
2016,03,14,04,21,9.60
2016,03,14,04,22,19.30
2016,03,14,04,23,14.50
2016,03,14,04,24,12.90
2016,03,14,04,25,22.50
2016,03,14,04,26,17.70
2016,03,14,04,27,3.20
2016,03,14,04,28,9.60
2016,03,14,04,29,16.10
2016,03,14,04,30,4.80
2016,03,14,04,31,14.50
2016,03,14,04,32,1.60
2016,03,14,04,33,4.80
2016,03,14,04,34,4.80
2016,03,14,04,35,8.10
2016,03,14,04,36,9.60
2016,03,14,04,37,3.20
2016,03,14,04,38,6.40
2016,03,14,04,39,9.60
2016,03,14,04,40,6.40
2016,03,14,04,41,4.80
2016,03,14,04,42,12.90
2016,03,14,04,43,11.30
2016,03,14,04,44,9.60
2016,03,14,04,45,9.60
2016,03,14,04,46,6.40
2016,03,14,04,47,6.40
2016,03,14,04,50,3.20
2016,03,14,04,52,3.20
2016,03,14,04,53,3.20
2016,03,14,04,54,3.20
2016,03,14,04,55,14.50
2016,03,14,04,56,9.60
2016,03,14,04,57,1.60
2016,03,14,04,58,4.80
2016,03,14,04,59,22.50
2016,03,14,05,00,20.90
2016,03,14,05,01,14.50
2016,03,14,05,02,8.10
2016,03,14,05,03,19.30
2016,03,14,05,04,16.10
2016,03,14,05,05,17.70
2016,03,14,05,06,14.50
2016,03,14,05,07,8.10
2016,03,14,05,08,9.60
2016,03,14,05,09,16.10
2016,03,14,05,10,16.10
2016,03,14,05,11,19.30
2016,03,14,05,12,19.30
2016,03,14,05,13,11.30
2016,03,14,05,14,22.50
2016,03,14,05,15,22.50
2016,03,14,05,16,9.60
2016,03,14,05,17,12.90
2016,03,14,05,18,4.80
2016,03,14,05,19,25.70
2016,03,14,05,20,30.60
2016,03,14,05,21,11.30
2016,03,14,05,22,19.30
2016,03,14,05,23,19.30
2016,03,14,05,24,20.90
2016,03,14,05,25,25.70
2016,03,14,05,26,20.90
2016,03,14,05,27,14.50
2016,03,14,05,28,11.30
2016,03,14,05,29,12.90
2016,03,14,05,30,14.50
2016,03,14,05,31,11.30
2016,03,14,05,32,11.30
2016,03,14,05,33,8.10
2016,03,14,05,34,12.90
2016,03,14,05,35,9.60
2016,03,14,05,36,14.50
2016,03,14,05,37,9.60
2016,03,14,05,38,6.40
2016,03,14,05,39,11.30
2016,03,14,05,40,11.30
2016,03,14,05,41,16.10
2016,03,14,05,42,9.60
2016,03,14,05,43,9.60
2016,03,14,05,44,6.40
2016,03,14,05,45,3.20
2016,03,14,05,46,11.30
2016,03,14,05,47,8.10
2016,03,14,05,48,9.60
2016,03,14,05,49,9.60
2016,03,14,05,50,14.50
2016,03,14,05,51,14.50
2016,03,14,05,52,8.10
2016,03,14,05,53,11.30
2016,03,14,05,54,19.30
2016,03,14,05,55,16.10
2016,03,14,05,56,16.10
2016,03,14,05,57,11.30
2016,03,14,05,58,11.30
2016,03,14,05,59,29.00
2016,03,14,06,00,20.90
2016,03,14,06,01,25.70
2016,03,14,06,02,20.90
2016,03,14,06,03,19.30
2016,03,14,06,04,9.60
2016,03,14,06,05,17.70
2016,03,14,06,06,12.90
2016,03,14,06,07,14.50
2016,03,14,06,08,9.60
2016,03,14,06,09,16.10
2016,03,14,06,10,20.90
2016,03,14,06,11,22.50
2016,03,14,06,12,19.30
2016,03,14,06,13,19.30
2016,03,14,06,14,9.60
2016,03,14,06,15,11.30
2016,03,14,06,16,6.40
2016,03,14,06,17,8.10
2016,03,14,06,18,8.10
2016,03,14,06,19,4.80
2016,03,14,06,20,11.30
2016,03,14,06,21,11.30
2016,03,14,06,22,6.40
2016,03,14,06,23,8.10
2016,03,14,06,24,19.30
2016,03,14,06,25,17.70
2016,03,14,06,26,6.40
2016,03,14,06,27,14.50
2016,03,14,06,28,6.40
2016,03,14,06,29,9.60
2016,03,14,06,30,6.40
2016,03,14,06,31,3.20
2016,03,14,06,32,6.40
2016,03,14,06,33,8.10
2016,03,14,06,35,1.60
2016,03,14,06,36,6.40
2016,03,14,06,37,1.60
2016,03,14,06,39,3.20
2016,03,14,06,40,9.60
2016,03,14,06,41,6.40
2016,03,14,06,42,3.20
2016,03,14,06,43,3.20
2016,03,14,06,44,4.80
2016,03,14,06,48,4.80
2016,03,14,06,50,1.60
2016,03,14,06,54,1.60
2016,03,14,06,55,6.40
2016,03,14,06,56,4.80
2016,03,14,06,57,1.60
2016,03,14,06,59,1.60
2016,03,14,07,01,6.40
2016,03,14,07,03,1.60
2016,03,14,07,06,1.60
2016,03,14,07,07,4.80
2016,03,14,07,08,4.80
2016,03,14,07,09,3.20
2016,03,14,07,10,3.20
2016,03,14,07,11,4.80
2016,03,14,07,12,6.40
2016,03,14,07,13,6.40
2016,03,14,07,14,9.60
2016,03,14,07,15,11.30
2016,03,14,07,16,9.60
2016,03,14,07,17,11.30
2016,03,14,07,18,11.30
2016,03,14,07,19,17.70
2016,03,14,07,20,14.50
2016,03,14,07,21,16.10
2016,03,14,07,22,11.30
2016,03,14,07,23,14.50
2016,03,14,07,24,12.90
2016,03,14,07,25,9.60
2016,03,14,07,26,14.50
2016,03,14,07,27,9.60
2016,03,14,07,28,8.10
2016,03,14,07,29,8.10
2016,03,14,07,30,8.10
2016,03,14,07,31,8.10
2016,03,14,07,32,8.10
2016,03,14,07,33,6.40
2016,03,14,07,34,6.40
2016,03,14,07,35,6.40
2016,03,14,07,36,4.80
2016,03,14,07,37,6.40
2016,03,14,07,38,3.20
2016,03,14,07,39,3.20
2016,03,14,07,41,1.60
2016,03,14,08,37,1.60
2016,03,14,08,40,3.20
2016,03,14,08,41,1.60
2016,03,14,08,42,3.20
2016,03,14,08,43,3.20
2016,03,14,08,44,3.20
2016,03,14,08,45,3.20
2016,03,14,08,46,3.20
2016,03,14,08,47,4.80
2016,03,14,08,48,1.60
2016,03,14,08,49,1.60
2016,03,14,08,56,1.60
2016,03,14,09,01,6.40
2016,03,14,09,02,6.40
2016,03,14,09,03,9.60
2016,03,14,09,04,8.10
2016,03,14,09,05,6.40
2016,03,14,09,06,6.40
2016,03,14,09,07,1.60
2016,03,14,09,08,4.80
2016,03,14,09,09,6.40
2016,03,14,09,10,8.10
2016,03,14,09,11,9.60
2016,03,14,09,12,6.40
2016,03,14,09,13,14.50
2016,03,14,09,14,12.90
2016,03,14,09,15,8.10
2016,03,14,09,16,22.50
2016,03,14,09,17,14.50
2016,03,14,09,18,12.90
2016,03,14,09,19,9.60
2016,03,14,09,20,8.10
2016,03,14,09,21,20.90
2016,03,14,09,22,17.70
2016,03,14,09,23,16.10
2016,03,14,09,24,14.50
2016,03,14,09,25,11.30
2016,03,14,09,26,14.50
2016,03,14,09,27,16.10
2016,03,14,09,28,17.70
2016,03,14,09,29,17.70
2016,03,14,09,30,16.10
2016,03,14,09,31,14.50
2016,03,14,09,32,17.70
2016,03,14,09,33,6.40
2016,03,14,09,34,17.70
2016,03,14,09,35,9.60
2016,03,14,09,36,11.30
2016,03,14,09,37,9.60
2016,03,14,09,38,4.80
2016,03,14,09,39,6.40
2016,03,14,09,40,11.30
2016,03,14,09,41,11.30
2016,03,14,09,42,4.80
2016,03,14,09,43,11.30
2016,03,14,09,44,17.70
2016,03,14,09,45,16.10
2016,03,14,09,46,11.30
2016,03,14,09,47,9.60
2016,03,14,09,48,8.10
2016,03,14,09,49,6.40
2016,03,14,09,50,9.60
2016,03,14,09,51,11.30
2016,03,14,09,52,6.40
2016,03,14,09,53,9.60
2016,03,14,09,54,9.60
2016,03,14,09,55,8.10
2016,03,14,09,56,11.30
2016,03,14,09,57,14.50
2016,03,14,09,58,8.10
2016,03,14,09,59,6.40
2016,03,14,10,00,8.10
2016,03,14,10,01,16.10
2016,03,14,10,02,9.60
2016,03,14,10,03,11.30
2016,03,14,10,04,24.20
2016,03,14,10,05,14.50
2016,03,14,10,06,16.10
2016,03,14,10,07,16.10
2016,03,14,10,08,17.70
2016,03,14,10,09,14.50
2016,03,14,10,10,8.10
2016,03,14,10,11,8.10
2016,03,14,10,12,8.10
2016,03,14,10,13,11.30
2016,03,14,10,14,9.60
2016,03,14,10,15,8.10
2016,03,14,10,16,8.10
2016,03,14,10,17,20.90
2016,03,14,10,18,16.10
2016,03,14,10,19,9.60
2016,03,14,10,20,9.60
2016,03,14,10,21,6.40
2016,03,14,10,22,8.10
2016,03,14,10,23,14.50
2016,03,14,10,24,14.50
2016,03,14,10,25,20.90
2016,03,14,10,26,22.50
2016,03,14,10,27,14.50
2016,03,14,10,28,16.10
2016,03,14,10,29,9.60
2016,03,14,10,30,14.50
2016,03,14,10,31,17.70
2016,03,14,10,32,14.50
2016,03,14,10,33,9.60
2016,03,14,10,34,22.50
2016,03,14,10,35,20.90
2016,03,14,10,36,17.70
2016,03,14,10,37,16.10
2016,03,14,10,38,25.70
2016,03,14,10,39,17.70
2016,03,14,10,40,19.30
2016,03,14,10,41,19.30
2016,03,14,10,42,11.30
2016,03,14,10,43,16.10
2016,03,14,10,44,20.90
2016,03,14,10,45,20.90
2016,03,14,10,46,19.30
2016,03,14,10,47,19.30
2016,03,14,10,48,17.70
2016,03,14,10,49,3.20
2016,03,14,10,50,11.30
2016,03,14,10,51,14.50
2016,03,14,10,52,11.30
2016,03,14,10,53,4.80
2016,03,14,10,54,6.40
2016,03,14,10,55,17.70
2016,03,14,10,56,9.60
2016,03,14,10,57,16.10
2016,03,14,10,58,16.10
2016,03,14,10,59,6.40
2016,03,14,11,00,8.10
2016,03,14,11,01,14.50
2016,03,14,11,02,19.30
2016,03,14,11,03,8.10
2016,03,14,11,04,4.80
2016,03,14,11,05,3.20
2016,03,14,11,06,19.30
2016,03,14,11,07,8.10
2016,03,14,11,08,11.30
2016,03,14,11,09,20.90
2016,03,14,11,10,17.70
2016,03,14,11,11,9.60
2016,03,14,11,12,9.60
2016,03,14,11,13,8.10
2016,03,14,11,14,12.90
2016,03,14,11,15,11.30
2016,03,14,11,16,17.70
2016,03,14,11,17,14.50
2016,03,14,11,18,14.50
2016,03,14,11,19,14.50
2016,03,14,11,20,14.50
2016,03,14,11,21,14.50
2016,03,14,11,22,14.50
2016,03,14,11,23,11.30
2016,03,14,11,24,9.60
2016,03,14,11,25,8.10
2016,03,14,11,26,3.20
2016,03,14,11,27,6.40
2016,03,14,11,28,4.80
2016,03,14,11,29,14.50
2016,03,14,11,30,12.90
2016,03,14,11,31,9.60
2016,03,14,11,32,8.10
2016,03,14,11,33,1.60
2016,03,14,11,35,6.40
2016,03,14,11,36,1.60
2016,03,14,11,37,4.80
2016,03,14,11,38,1.60
2016,03,14,11,39,6.40
2016,03,14,11,40,16.10
2016,03,14,11,41,12.90
2016,03,14,11,42,9.60
2016,03,14,11,43,14.50
2016,03,14,11,44,6.40
2016,03,14,11,45,14.50
2016,03,14,11,46,16.10
2016,03,14,11,47,14.50
2016,03,14,11,48,11.30
2016,03,14,11,49,16.10
2016,03,14,11,50,17.70
2016,03,14,11,51,19.30
2016,03,14,11,52,16.10
2016,03,14,11,53,11.30
2016,03,14,11,54,11.30
2016,03,14,11,55,17.70
2016,03,14,11,56,16.10
2016,03,14,11,57,17.70
2016,03,14,11,58,12.90
2016,03,14,11,59,19.30
2016,03,14,12,00,19.30
2016,03,14,12,01,16.10
2016,03,14,12,02,19.30
2016,03,14,12,03,16.10
2016,03,14,12,04,11.30
2016,03,14,12,05,16.10
2016,03,14,12,06,16.10
2016,03,14,12,07,17.70
2016,03,14,12,08,20.90
2016,03,14,12,09,17.70
2016,03,14,12,10,19.30
2016,03,14,12,11,19.30
2016,03,14,12,12,19.30
2016,03,14,12,13,14.50
2016,03,14,12,14,17.70
2016,03,14,12,15,14.50
2016,03,14,12,16,17.70
2016,03,14,12,17,16.10
2016,03,14,12,18,14.50
2016,03,14,12,19,17.70
2016,03,14,12,20,14.50
2016,03,14,12,21,17.70
2016,03,14,12,22,14.50
2016,03,14,12,23,16.10
2016,03,14,12,24,12.90
2016,03,14,12,25,11.30
2016,03,14,12,26,11.30
2016,03,14,12,27,12.90
2016,03,14,12,28,17.70
2016,03,14,12,29,16.10
2016,03,14,12,30,20.90
2016,03,14,12,31,19.30
2016,03,14,12,32,14.50
2016,03,14,12,33,17.70
2016,03,14,12,34,20.90
2016,03,14,12,35,20.90
2016,03,14,12,36,19.30
2016,03,14,12,37,20.90
2016,03,14,12,38,20.90
2016,03,14,12,39,20.90
2016,03,14,12,40,24.20
2016,03,14,12,41,19.30
2016,03,14,12,42,17.70
2016,03,14,12,43,14.50
2016,03,14,12,44,14.50
2016,03,14,12,45,14.50
2016,03,14,12,46,16.10
2016,03,14,12,47,17.70
2016,03,14,12,48,19.30
2016,03,14,12,49,17.70
2016,03,14,12,50,14.50
2016,03,14,12,51,9.60
2016,03,14,12,52,17.70
2016,03,14,12,53,12.90
2016,03,14,12,54,19.30
2016,03,14,12,55,20.90
2016,03,14,12,56,16.10
2016,03,14,12,57,11.30
2016,03,14,12,58,14.50
2016,03,14,12,59,12.90
2016,03,14,13,00,12.90
2016,03,14,13,01,11.30
2016,03,14,13,02,17.70
2016,03,14,13,03,16.10
2016,03,14,13,04,14.50
2016,03,14,13,05,14.50
2016,03,14,13,06,19.30
2016,03,14,13,07,14.50
2016,03,14,13,08,17.70
2016,03,14,13,09,17.70
2016,03,14,13,10,20.90
2016,03,14,13,11,14.50
2016,03,14,13,12,17.70
2016,03,14,13,13,17.70
2016,03,14,13,14,16.10
2016,03,14,13,15,14.50
2016,03,14,13,16,16.10
2016,03,14,13,17,14.50
2016,03,14,13,18,8.10
2016,03,14,13,19,19.30
2016,03,14,13,20,22.50
2016,03,14,13,21,19.30
2016,03,14,13,22,14.50
2016,03,14,13,23,17.70
2016,03,14,13,24,12.90
2016,03,14,13,25,19.30
2016,03,14,13,26,16.10
2016,03,14,13,27,17.70
2016,03,14,13,28,17.70
2016,03,14,13,29,19.30
2016,03,14,13,30,19.30
2016,03,14,13,31,16.10
2016,03,14,13,32,11.30
2016,03,14,13,33,16.10
2016,03,14,13,34,19.30
2016,03,14,13,35,11.30
2016,03,14,13,36,19.30
2016,03,14,13,37,19.30
2016,03,14,13,38,20.90
2016,03,14,13,39,22.50
2016,03,14,13,40,11.30
2016,03,14,13,41,16.10
2016,03,14,13,42,20.90
2016,03,14,13,43,17.70
2016,03,14,13,44,17.70
2016,03,14,13,45,16.10
2016,03,14,13,46,19.30
2016,03,14,13,47,20.90
2016,03,14,13,48,16.10
2016,03,14,13,49,24.20
2016,03,14,13,50,19.30
2016,03,14,13,51,16.10
2016,03,14,13,52,12.90
2016,03,14,13,53,17.70
2016,03,14,13,54,22.50
2016,03,14,13,55,22.50
2016,03,14,13,56,24.20
2016,03,14,13,57,16.10
2016,03,14,13,58,20.90
2016,03,14,13,59,20.90
2016,03,14,14,00,19.30
2016,03,14,14,01,19.30
2016,03,14,14,02,16.10
2016,03,14,14,03,19.30
2016,03,14,14,04,19.30
2016,03,14,14,05,19.30
2016,03,14,14,06,25.70
2016,03,14,14,07,16.10
2016,03,14,14,08,22.50
2016,03,14,14,09,19.30
2016,03,14,14,10,20.90
2016,03,14,14,11,16.10
2016,03,14,14,12,19.30
2016,03,14,14,13,16.10
2016,03,14,14,14,17.70
2016,03,14,14,15,20.90
2016,03,14,14,16,22.50
2016,03,14,14,17,14.50
2016,03,14,14,18,22.50
2016,03,14,14,19,22.50
2016,03,14,14,20,27.40
2016,03,14,14,21,17.70
2016,03,14,14,22,24.20
2016,03,14,14,23,17.70
2016,03,14,14,24,17.70
2016,03,14,14,25,19.30
2016,03,14,14,26,14.50
2016,03,14,14,27,12.90
2016,03,14,14,28,19.30
2016,03,14,14,29,22.50
2016,03,14,14,30,27.40
2016,03,14,14,31,32.20
2016,03,14,14,32,24.20
2016,03,14,14,33,19.30
2016,03,14,14,34,24.20
2016,03,14,14,35,24.20
2016,03,14,14,36,24.20
2016,03,14,14,37,30.60
2016,03,14,14,38,25.70
2016,03,14,14,39,19.30
2016,03,14,14,40,20.90
2016,03,14,14,41,20.90
2016,03,14,14,42,9.60
2016,03,14,14,43,20.90
2016,03,14,14,44,16.10
2016,03,14,14,45,22.50
2016,03,14,14,46,25.70
2016,03,14,14,47,20.90
2016,03,14,14,48,19.30
2016,03,14,14,49,14.50
2016,03,14,14,50,9.60
2016,03,14,14,51,17.70
2016,03,14,14,52,9.60
2016,03,14,14,53,22.50
2016,03,14,14,54,8.10
2016,03,14,14,55,14.50
2016,03,14,14,56,16.10
2016,03,14,14,57,16.10
2016,03,14,14,58,37.00
2016,03,14,14,59,24.20
2016,03,14,15,00,19.30
2016,03,14,15,01,27.40
2016,03,14,15,02,17.70
2016,03,14,15,03,19.30
2016,03,14,15,04,17.70
2016,03,14,15,05,20.90
2016,03,14,15,06,14.50
2016,03,14,15,07,14.50
2016,03,14,15,08,14.50
2016,03,14,15,09,12.90
2016,03,14,15,10,16.10
2016,03,14,15,11,11.30
2016,03,14,15,12,9.60
2016,03,14,15,13,14.50
2016,03,14,15,14,11.30
2016,03,14,15,15,9.60
2016,03,14,15,16,14.50
2016,03,14,15,17,16.10
2016,03,14,15,18,16.10
2016,03,14,15,19,8.10
2016,03,14,15,20,6.40
2016,03,14,15,21,6.40
2016,03,14,15,22,19.30
2016,03,14,15,23,6.40
2016,03,14,15,24,16.10
2016,03,14,15,25,22.50
2016,03,14,15,26,16.10
2016,03,14,15,27,30.60
2016,03,14,15,28,14.50
2016,03,14,15,29,19.30
2016,03,14,15,30,27.40
2016,03,14,15,31,11.30
2016,03,14,15,32,24.20
2016,03,14,15,33,19.30
2016,03,14,15,34,19.30
2016,03,14,15,35,20.90
2016,03,14,15,36,6.40
2016,03,14,15,37,14.50
2016,03,14,15,38,16.10
2016,03,14,15,39,9.60
2016,03,14,15,40,11.30
2016,03,14,15,41,8.10
2016,03,14,15,42,16.10
2016,03,14,15,43,19.30
2016,03,14,15,44,11.30
2016,03,14,15,45,17.70
2016,03,14,15,46,11.30
2016,03,14,15,47,17.70
2016,03,14,15,48,17.70
2016,03,14,15,49,12.90
2016,03,14,15,50,9.60
2016,03,14,15,51,30.60
2016,03,14,15,52,11.30
2016,03,14,15,53,16.10
2016,03,14,15,54,8.10
2016,03,14,15,55,6.40
2016,03,14,15,56,11.30
2016,03,14,15,57,20.90
2016,03,14,15,58,11.30
2016,03,14,15,59,8.10
2016,03,14,16,00,6.40
2016,03,14,16,01,19.30
2016,03,14,16,02,14.50
2016,03,14,16,03,9.60
2016,03,14,16,04,11.30
2016,03,14,16,05,8.10
2016,03,14,16,06,8.10
2016,03,14,16,07,8.10
2016,03,14,16,08,3.20
2016,03,14,16,09,6.40
2016,03,14,16,10,11.30
2016,03,14,16,11,19.30
2016,03,14,16,12,14.50
2016,03,14,16,13,16.10
2016,03,14,16,14,4.80
2016,03,14,16,15,6.40
2016,03,14,16,16,9.60
2016,03,14,16,17,9.60
2016,03,14,16,18,17.70
2016,03,14,16,19,14.50
2016,03,14,16,20,16.10
2016,03,14,16,21,11.30
2016,03,14,16,22,16.10
2016,03,14,16,23,17.70
2016,03,14,16,24,8.10
2016,03,14,16,25,17.70
2016,03,14,16,26,14.50
2016,03,14,16,27,9.60
2016,03,14,16,28,6.40
2016,03,14,16,29,19.30
2016,03,14,16,30,22.50
2016,03,14,16,31,14.50
2016,03,14,16,32,14.50
2016,03,14,16,33,12.90
2016,03,14,16,34,17.70
2016,03,14,16,35,9.60
2016,03,14,16,36,17.70
2016,03,14,16,37,25.70
2016,03,14,16,38,24.20
2016,03,14,16,39,19.30
2016,03,14,16,40,22.50
2016,03,14,16,41,9.60
2016,03,14,16,42,30.60
2016,03,14,16,43,22.50
2016,03,14,16,44,8.10
2016,03,14,16,45,17.70
2016,03,14,16,46,11.30
2016,03,14,16,47,14.50
2016,03,14,16,48,8.10
2016,03,14,16,49,17.70
2016,03,14,16,50,3.20
2016,03,14,16,51,20.90
2016,03,14,16,52,22.50
2016,03,14,16,53,19.30
2016,03,14,16,54,14.50
2016,03,14,16,55,20.90
2016,03,14,16,56,17.70
2016,03,14,16,57,17.70
2016,03,14,16,58,14.50
2016,03,14,16,59,17.70
2016,03,14,17,00,22.50
2016,03,14,17,01,22.50
2016,03,14,17,02,24.20
2016,03,14,17,03,20.90
2016,03,14,17,04,25.70
2016,03,14,17,05,20.90
2016,03,14,17,06,22.50
2016,03,14,17,07,19.30
2016,03,14,17,08,19.30
2016,03,14,17,09,19.30
2016,03,14,17,10,16.10
2016,03,14,17,11,29.00
2016,03,14,17,12,17.70
2016,03,14,17,13,19.30
2016,03,14,17,14,22.50
2016,03,14,17,15,32.20
2016,03,14,17,16,22.50
2016,03,14,17,17,17.70
2016,03,14,17,18,9.60
2016,03,14,17,19,6.40
2016,03,14,17,20,19.30
2016,03,14,17,21,22.50
2016,03,14,17,22,16.10
2016,03,14,17,23,25.70
2016,03,14,17,24,24.20
2016,03,14,17,25,8.10
2016,03,14,17,26,19.30
2016,03,14,17,27,9.60
2016,03,14,17,28,17.70
2016,03,14,17,29,17.70
2016,03,14,17,30,19.30
2016,03,14,17,31,20.90
2016,03,14,17,32,19.30
2016,03,14,17,33,17.70
2016,03,14,17,34,24.20
2016,03,14,17,35,16.10
2016,03,14,17,36,22.50
2016,03,14,17,37,19.30
2016,03,14,17,38,17.70
2016,03,14,17,39,17.70
2016,03,14,17,40,12.90
2016,03,14,17,41,14.50
2016,03,14,17,42,24.20
2016,03,14,17,43,17.70
2016,03,14,17,44,17.70
2016,03,14,17,45,17.70
2016,03,14,17,46,16.10
2016,03,14,17,47,14.50
2016,03,14,17,48,29.00
2016,03,14,17,49,16.10
2016,03,14,17,50,11.30
2016,03,14,17,51,8.10
2016,03,14,17,52,14.50
2016,03,14,17,53,17.70
2016,03,14,17,54,14.50
2016,03,14,17,55,6.40
2016,03,14,17,56,4.80
2016,03,14,17,57,6.40
2016,03,14,17,58,19.30
2016,03,14,17,59,8.10
2016,03,14,18,00,22.50
2016,03,14,18,01,14.50
2016,03,14,18,02,17.70
2016,03,14,18,03,19.30
2016,03,14,18,04,16.10
2016,03,14,18,05,9.60
2016,03,14,18,06,17.70
2016,03,14,18,07,17.70
2016,03,14,18,08,12.90
2016,03,14,18,09,4.80
2016,03,14,18,10,16.10
2016,03,14,18,11,4.80
2016,03,14,18,12,8.10
2016,03,14,18,13,8.10
2016,03,14,18,14,3.20
2016,03,14,18,15,12.90
2016,03,14,18,16,6.40
2016,03,14,18,17,8.10
2016,03,14,18,18,3.20
2016,03,14,18,19,6.40
2016,03,14,18,20,9.60
2016,03,14,18,21,8.10
2016,03,14,18,22,9.60
2016,03,14,18,23,8.10
2016,03,14,18,24,9.60
2016,03,14,18,25,11.30
2016,03,14,18,26,8.10
2016,03,14,18,27,9.60
2016,03,14,18,28,17.70
2016,03,14,18,29,14.50
2016,03,14,18,30,14.50
2016,03,14,18,31,17.70
2016,03,14,18,32,16.10
2016,03,14,18,33,6.40
2016,03,14,18,34,8.10
2016,03,14,18,35,14.50
2016,03,14,18,36,12.90
2016,03,14,18,37,11.30
2016,03,14,18,38,9.60
2016,03,14,18,39,8.10
2016,03,14,18,40,8.10
2016,03,14,18,41,6.40
2016,03,14,18,42,8.10
2016,03,14,18,43,6.40
2016,03,14,18,44,6.40
2016,03,14,18,45,11.30
2016,03,14,18,46,9.60
2016,03,14,18,47,8.10
2016,03,14,18,48,20.90
2016,03,14,18,49,9.60
2016,03,14,18,50,9.60
2016,03,14,18,51,9.60
2016,03,14,18,52,16.10
2016,03,14,18,53,9.60
2016,03,14,18,54,14.50
2016,03,14,18,55,8.10
2016,03,14,18,56,8.10
2016,03,14,18,57,4.80
2016,03,14,18,58,14.50
2016,03,14,18,59,14.50
2016,03,14,19,00,8.10
2016,03,14,19,01,9.60
2016,03,14,19,02,9.60
2016,03,14,19,03,16.10
2016,03,14,19,04,9.60
2016,03,14,19,05,6.40
2016,03,14,19,06,20.90
2016,03,14,19,07,16.10
2016,03,14,19,08,8.10
2016,03,14,19,09,11.30
2016,03,14,19,10,9.60
2016,03,14,19,11,16.10
2016,03,14,19,12,14.50
2016,03,14,19,13,22.50
2016,03,14,19,14,25.70
2016,03,14,19,15,27.40
2016,03,14,19,16,24.20
2016,03,14,19,17,24.20
2016,03,14,19,18,11.30
2016,03,14,19,19,11.30
2016,03,14,19,20,17.70
2016,03,14,19,21,11.30
2016,03,14,19,22,17.70
2016,03,14,19,23,9.60
2016,03,14,19,24,20.90
2016,03,14,19,25,4.80
2016,03,14,19,26,24.20
2016,03,14,19,27,25.70
2016,03,14,19,28,8.10
2016,03,14,19,29,25.70
2016,03,14,19,30,27.40
2016,03,14,19,31,11.30
2016,03,14,19,32,11.30
2016,03,14,19,33,27.40
2016,03,14,19,34,27.40
2016,03,14,19,35,14.50
2016,03,14,19,36,11.30
2016,03,14,19,37,29.00
2016,03,14,19,38,30.60
2016,03,14,19,39,22.50
2016,03,14,19,40,20.90
2016,03,14,19,41,22.50
2016,03,14,19,42,24.20
2016,03,14,19,43,29.00
2016,03,14,19,44,33.80
2016,03,14,19,45,20.90
2016,03,14,19,46,17.70
2016,03,14,19,47,17.70
2016,03,14,19,48,9.60
2016,03,14,19,49,9.60
2016,03,14,19,50,19.30
2016,03,14,19,51,19.30
2016,03,14,19,52,14.50